| time (UTC) | temp F | wind direction | speed MPH | gust MPH | rain 1hr in | rain 24hr in | rain mn in | humidity % | barometer mb |
| 20260902210933 | 92 | 104 | 1.0 | 2.0 | 0.00 | 0.00 | 0.00 | 78 | 1014.3 |
| 20260902210428 | 91 | 132 | 3.0 | 3.0 | 0.00 | 0.00 | 0.00 | 78 | 1014.2 |
| 20260902205926 | 91 | 97 | 2.0 | 3.0 | 0.00 | 0.00 | 0.00 | 80 | 1014.2 |
| 20260902205422 | 93 | 105 | 6.0 | 7.0 | 0.00 | 0.00 | 0.00 | 77 | 1014.5 |
| 20260902204917 | 92 | 216 | 3.0 | 3.0 | 0.00 | 0.00 | 0.00 | 77 | 1014.7 |
| 20260902204417 | 92 | 227 | 0.0 | 1.0 | 0.00 | 0.00 | 0.00 | 79 | 1014.5 |
| 20260902203913 | 91 | 144 | 2.0 | 2.0 | 0.00 | 0.00 | 0.00 | 78 | 1014.6 |
| 20260902203408 | 91 | 94 | 4.0 | 5.0 | 0.00 | 0.00 | 0.00 | 79 | 1014.6 |
| 20260902202902 | 91 | 98 | 3.0 | 5.0 | 0.00 | 0.00 | 0.00 | 79 | 1014.5 |
| 20260902202357 | 91 | 189 | 1.0 | 2.0 | 0.00 | 0.00 | 0.00 | 79 | 1014.4 |
| 20260902201854 | 91 | 28 | 5.0 | 6.0 | 0.00 | 0.00 | 0.00 | 81 | 1014.4 |
| 20260902201354 | 92 | 28 | 1.0 | 2.0 | 0.00 | 0.00 | 0.00 | 81 | 1014.7 |
| 20260902200848 | 91 | 92 | 2.0 | 3.0 | 0.00 | 0.00 | 0.00 | 81 | 1014.7 |
| 20260902200344 | 90 | 36 | 3.0 | 5.0 | 0.00 | 0.00 | 0.00 | 82 | 1014.6 |
| 20260902195839 | 90 | 121 | 1.0 | 2.0 | 0.00 | 0.00 | 0.00 | 81 | 1014.8 |
| 20260902195339 | 89 | 101 | 0.0 | 1.0 | 0.00 | 0.00 | 0.00 | 82 | 1014.8 |
| 20260902194833 | 89 | 315 | 1.0 | 1.0 | 0.00 | 0.00 | 0.00 | 83 | 1014.8 |
| 20260902194328 | 89 | 48 | 1.0 | 2.0 | 0.00 | 0.00 | 0.00 | 83 | 1014.9 |
| 20260902193823 | 89 | 152 | 3.0 | 5.0 | 0.00 | 0.00 | 0.00 | 84 | 1014.9 |
| 20260902193319 | 89 | 109 | 2.0 | 3.0 | 0.00 | 0.00 | 0.00 | 84 | 1015.0 |
| 20260902192818 | 89 | 103 | 6.0 | 8.0 | 0.00 | 0.00 | 0.00 | 83 | 1015.1 |
| 20260902192316 | 89 | 358 | 3.0 | 3.0 | 0.00 | 0.00 | 0.00 | 84 | 1015.2 |
| 20260902191816 | 89 | 66 | 0.0 | 1.0 | 0.00 | 0.00 | 0.00 | 85 | 1015.3 |
| 20260902191312 | 89 | 91 | 3.0 | 3.0 | 0.00 | 0.00 | 0.00 | 85 | 1015.2 |
| 20260902190807 | 90 | 301 | 0.0 | 0.0 | 0.00 | 0.00 | 0.00 | 83 | 1015.3 |
| 20260902190306 | 89 | 284 | 0.0 | 0.0 | 0.00 | 0.00 | 0.00 | 84 | 1015.5 |
| 20260902185803 | 88 | 15 | 1.0 | 2.0 | 0.00 | 0.00 | 0.00 | 86 | 1015.4 |
| 20260902185257 | 89 | 357 | 2.0 | 2.0 | 0.00 | 0.00 | 0.00 | 85 | 1015.6 |
| 20260902184754 | 88 | 4 | 1.0 | 1.0 | 0.00 | 0.00 | 0.00 | 86 | 1015.6 |
| 20260902184249 | 88 | 126 | 3.0 | 5.0 | 0.00 | 0.00 | 0.00 | 86 | 1015.3 |
| 20260902183744 | 89 | 342 | 0.0 | 0.0 | 0.00 | 0.00 | 0.00 | 85 | 1015.5 |
| 20260902183240 | 89 | 164 | 3.0 | 3.0 | 0.00 | 0.00 | 0.00 | 84 | 1015.5 |
| 20260902182736 | 88 | 178 | 1.0 | 2.0 | 0.00 | 0.00 | 0.00 | 85 | 1015.6 |
| 20260902182232 | 89 | 338 | 1.0 | 2.0 | 0.00 | 0.00 | 0.00 | 85 | 1015.8 |
| 20260902181728 | 89 | 182 | 0.0 | 0.0 | 0.00 | 0.00 | 0.00 | 85 | 1015.7 |
| 20260902181227 | 89 | 155 | 1.0 | 1.0 | 0.00 | 0.00 | 0.00 | 85 | 1015.8 |
| 20260902180723 | 89 | 344 | 1.0 | 1.0 | 0.00 | 0.00 | 0.00 | 84 | 1015.8 |
| 20260902180218 | 89 | 105 | 1.0 | 1.0 | 0.00 | 0.00 | 0.00 | 84 | 1015.7 |
| 20260902175713 | 89 | 49 | 1.0 | 1.0 | 0.00 | 0.00 | 0.00 | 85 | 1016.0 |
| 20260902175209 | 89 | 87 | 2.0 | 3.0 | 0.00 | 0.00 | 0.00 | 85 | 1015.9 |
| 20260902174705 | 89 | 81 | 2.0 | 2.0 | 0.00 | 0.00 | 0.00 | 85 | 1015.9 |
| 20260902174201 | 89 | 106 | 3.0 | 3.0 | 0.00 | 0.00 | 0.00 | 84 | 1015.9 |
| 20260902173656 | 89 | 328 | 0.0 | 1.0 | 0.00 | 0.00 | 0.00 | 84 | 1015.9 |
| 20260902173151 | 89 | 64 | 0.0 | 1.0 | 0.00 | 0.00 | 0.00 | 85 | 1016.1 |
| 20260902172645 | 90 | 62 | 0.0 | 0.0 | 0.00 | 0.00 | 0.00 | 84 | 1015.9 |
| 20260902172144 | 90 | 318 | 0.0 | 1.0 | 0.00 | 0.00 | 0.00 | 83 | 1015.9 |
| 20260902171640 | 90 | 335 | 0.0 | 0.0 | 0.00 | 0.00 | 0.00 | 82 | 1016.3 |
| 20260902171136 | 90 | 147 | 2.0 | 2.0 | 0.00 | 0.00 | 0.00 | 81 | 1016.3 |
| 20260902170631 | 91 | 84 | 1.0 | 2.0 | 0.00 | 0.00 | 0.00 | 81 | 1016.3 |
| 20260902170126 | 91 | 346 | 0.0 | 0.0 | 0.00 | 0.00 | 0.00 | 80 | 1016.3 |
| 20260902165621 | 91 | 337 | 2.0 | 2.0 | 0.00 | 0.00 | 0.00 | 81 | 1016.3 |
| 20260902165121 | 91 | 111 | 2.0 | 3.0 | 0.00 | 0.00 | 0.00 | 80 | 1016.1 |
| 20260902164616 | 91 | 151 | 2.0 | 3.0 | 0.00 | 0.00 | 0.00 | 78 | 1016.2 |
| 20260902164115 | 91 | 247 | 0.0 | 1.0 | 0.00 | 0.00 | 0.00 | 80 | 1016.4 |
| 20260902163610 | 91 | 177 | 4.0 | 5.0 | 0.00 | 0.00 | 0.00 | 78 | 1016.4 |
| 20260902163109 | 91 | 335 | 0.0 | 0.0 | 0.00 | 0.00 | 0.00 | 80 | 1016.6 |
| 20260902162608 | 91 | 328 | 0.0 | 0.0 | 0.00 | 0.00 | 0.00 | 78 | 1016.6 |
| 20260902162103 | 92 | 298 | 0.0 | 0.0 | 0.00 | 0.00 | 0.00 | 76 | 1016.5 |
| 20260902161558 | 92 | 263 | 0.0 | 0.0 | 0.00 | 0.00 | 0.00 | 76 | 1016.5 |
| 20260902161054 | 93 | 216 | 0.0 | 0.0 | 0.00 | 0.00 | 0.00 | 73 | 1016.6 |
| 20260902160550 | 95 | 351 | 1.0 | 1.0 | 0.00 | 0.00 | 0.00 | 73 | 1016.7 |
| 20260902160045 | 94 | 298 | 0.0 | 0.0 | 0.00 | 0.00 | 0.00 | 73 | 1016.8 |
| 20260902155538 | 93 | 292 | 0.0 | 0.0 | 0.00 | 0.00 | 0.00 | 75 | 1016.9 |
| 20260902155037 | 92 | 74 | 2.0 | 2.0 | 0.00 | 0.00 | 0.00 | 76 | 1016.9 |
| 20260902154533 | 94 | 355 | 0.0 | 0.0 | 0.00 | 0.00 | 0.00 | 74 | 1017.0 |
| 20260902154033 | 93 | 219 | 1.0 | 1.0 | 0.00 | 0.00 | 0.00 | 72 | 1017.2 |
| 20260902153531 | 95 | 88 | 2.0 | 2.0 | 0.00 | 0.00 | 0.00 | 73 | 1017.2 |
| 20260902153027 | 93 | 297 | 0.0 | 0.0 | 0.00 | 0.00 | 0.00 | 72 | 1016.8 |
| 20260902152523 | 94 | 277 | 0.0 | 0.0 | 0.00 | 0.00 | 0.00 | 73 | 1016.9 |
| 20260902152019 | 96 | 287 | 0.0 | 0.0 | 0.00 | 0.00 | 0.00 | 72 | 1017.0 |
| 20260902151515 | 93 | 92 | 1.0 | 1.0 | 0.00 | 0.00 | 0.00 | 76 | 1016.8 |
| 20260902151014 | 93 | 344 | 0.0 | 1.0 | 0.00 | 0.00 | 0.00 | 76 | 1016.8 |
| 20260902150509 | 93 | 276 | 0.0 | 0.0 | 0.00 | 0.00 | 0.00 | 78 | 1016.6 |
| 20260902150004 | 92 | 244 | 1.0 | 2.0 | 0.00 | 0.00 | 0.00 | 78 | 1016.9 |
| 20260902145459 | 91 | 114 | 0.0 | 0.0 | 0.00 | 0.00 | 0.00 | 79 | 1017.1 |
| 20260902144959 | 91 | 353 | 0.0 | 0.0 | 0.00 | 0.00 | 0.00 | 81 | 1017.0 |
| 20260902144450 | 90 | 301 | 0.0 | 0.0 | 0.00 | 0.00 | 0.00 | 82 | 1017.2 |
| 20260902143944 | 90 | 292 | 0.0 | 0.0 | 0.00 | 0.00 | 0.00 | 83 | 1017.0 |
| 20260902143440 | 89 | 292 | 0.0 | 0.0 | 0.00 | 0.00 | 0.00 | 84 | 1017.0 |
| 20260902142934 | 89 | 291 | 0.0 | 0.0 | 0.00 | 0.00 | 0.00 | 86 | 1017.1 |
| 20260902142430 | 89 | 290 | 0.0 | 0.0 | 0.00 | 0.00 | 0.00 | 85 | 1016.8 |
| 20260902141926 | 89 | 1 | 1.0 | 2.0 | 0.00 | 0.00 | 0.00 | 85 | 1017.0 |
| 20260902141421 | 88 | 299 | 0.0 | 0.0 | 0.00 | 0.00 | 0.00 | 84 | 1016.8 |
| 20260902140920 | 88 | 306 | 0.0 | 0.0 | 0.00 | 0.00 | 0.00 | 86 | 1017.0 |
| 20260902140416 | 88 | 327 | 0.0 | 0.0 | 0.00 | 0.00 | 0.00 | 87 | 1017.0 |
| 20260902135915 | 88 | 331 | 0.0 | 0.0 | 0.00 | 0.00 | 0.00 | 87 | 1016.9 |
| 20260902135412 | 88 | 326 | 0.0 | 0.0 | 0.00 | 0.00 | 0.00 | 86 | 1017.0 |
| 20260902134910 | 89 | 322 | 0.0 | 0.0 | 0.00 | 0.00 | 0.00 | 86 | 1016.6 |
| 20260902134406 | 88 | 296 | 0.0 | 0.0 | 0.00 | 0.00 | 0.00 | 88 | 1016.6 |
| 20260902133901 | 88 | 296 | 0.0 | 0.0 | 0.00 | 0.00 | 0.00 | 89 | 1016.7 |
| 20260902133401 | 88 | 264 | 0.0 | 0.0 | 0.00 | 0.00 | 0.00 | 88 | 1017.0 |
| 20260902132856 | 89 | 7 | 0.0 | 0.0 | 0.00 | 0.00 | 0.00 | 88 | 1016.8 |
| 20260902132351 | 89 | 225 | 0.0 | 0.0 | 0.00 | 0.00 | 0.00 | 87 | 1016.9 |
| 20260902131847 | 87 | 331 | 0.0 | 0.0 | 0.00 | 0.00 | 0.00 | 90 | 1016.8 |
| 20260902131343 | 87 | 35 | 0.0 | 0.0 | 0.00 | 0.00 | 0.00 | 92 | 1017.0 |
| 20260902130842 | 86 | 285 | 0.0 | 1.0 | 0.00 | 0.00 | 0.00 | 94 | 1016.8 |
| 20260902130338 | 84 | 342 | 0.0 | 0.0 | 0.00 | 0.00 | 0.00 | 99 | 1017.0 |
| 20260902125833 | 84 | 335 | 0.0 | 1.0 | 0.00 | 0.00 | 0.00 | 99 | 1016.7 |
| 20260902125329 | 83 | 346 | 0.0 | 0.0 | 0.00 | 0.00 | 0.00 | 99 | 1016.7 |
| 20260902124825 | 83 | 28 | 1.0 | 2.0 | 0.00 | 0.00 | 0.00 | 99 | 1016.8 |
| 20260902124320 | 83 | 301 | 0.0 | 0.0 | 0.00 | 0.00 | 0.00 | 99 | 1016.7 |
| 20260902123815 | 82 | 316 | 0.0 | 0.0 | 0.00 | 0.00 | 0.00 | 99 | 1016.7 |
| 20260902123312 | 83 | 294 | 0.0 | 0.0 | 0.00 | 0.00 | 0.00 | 99 | 1016.6 |
| 20260902122810 | 82 | 330 | 0.0 | 0.0 | 0.00 | 0.00 | 0.00 | 99 | 1016.6 |
| 20260902122307 | 82 | 34 | 2.0 | 2.0 | 0.00 | 0.00 | 0.00 | 99 | 1016.8 |
| 20260902121806 | 81 | 315 | 0.0 | 0.0 | 0.00 | 0.00 | 0.00 | 99 | 1016.5 |
| 20260902121301 | 81 | 300 | 0.0 | 0.0 | 0.00 | 0.00 | 0.00 | 99 | 1016.7 |
| 20260902120756 | 80 | 313 | 0.0 | 0.0 | 0.00 | 0.00 | 0.00 | 99 | 1016.5 |
| 20260902120253 | 79 | 292 | 0.0 | 0.0 | 0.00 | 0.00 | 0.00 | 99 | 1016.5 |
| 20260902115747 | 79 | 292 | 0.0 | 0.0 | 0.00 | 0.00 | 0.00 | 99 | 1016.4 |
| 20260902115244 | 79 | 292 | 0.0 | 0.0 | 0.00 | 0.00 | 0.00 | 99 | 1016.6 |
| 20260902114740 | 78 | 292 | 0.0 | 0.0 | 0.00 | 0.00 | 0.00 | 99 | 1016.4 |
| 20260902114236 | 78 | 292 | 0.0 | 0.0 | 0.00 | 0.00 | 0.00 | 99 | 1016.5 |
| 20260902113736 | 78 | 292 | 0.0 | 0.0 | 0.00 | 0.00 | 0.00 | 99 | 1016.2 |
| 20260902113231 | 78 | 292 | 0.0 | 0.0 | 0.00 | 0.00 | 0.00 | 99 | 1016.2 |
| 20260902112730 | 78 | 292 | 0.0 | 0.0 | 0.00 | 0.00 | 0.00 | 99 | 1016.2 |
| 20260902112228 | 78 | 293 | 0.0 | 0.0 | 0.00 | 0.00 | 0.00 | 99 | 1015.9 |
| 20260902111723 | 78 | 293 | 0.0 | 0.0 | 0.00 | 0.00 | 0.00 | 99 | 1016.0 |
| 20260902111219 | 78 | 293 | 0.0 | 0.0 | 0.00 | 0.00 | 0.00 | 99 | 1016.1 |
| 20260902110714 | 78 | 293 | 0.0 | 0.0 | 0.00 | 0.00 | 0.00 | 99 | 1015.9 |
| 20260902110210 | 78 | 293 | 0.0 | 0.0 | 0.00 | 0.00 | 0.00 | 99 | 1015.8 |
| 20260902105709 | 79 | 293 | 0.0 | 0.0 | 0.00 | 0.00 | 0.00 | 99 | 1015.9 |
| 20260902105205 | 79 | 292 | 0.0 | 0.0 | 0.00 | 0.00 | 0.00 | 99 | 1015.9 |
| 20260902104700 | 79 | 293 | 0.0 | 0.0 | 0.00 | 0.00 | 0.00 | 99 | 1015.7 |
| 20260902104156 | 79 | 293 | 0.0 | 0.0 | 0.00 | 0.00 | 0.00 | 99 | 1015.7 |
| 20260902103655 | 79 | 293 | 0.0 | 0.0 | 0.00 | 0.00 | 0.00 | 99 | 1015.5 |
| 20260902103150 | 79 | 293 | 0.0 | 0.0 | 0.00 | 0.00 | 0.00 | 99 | 1015.5 |
| 20260902102646 | 79 | 293 | 0.0 | 0.0 | 0.00 | 0.00 | 0.00 | 99 | 1015.8 |
| 20260902102144 | 79 | 293 | 0.0 | 0.0 | 0.00 | 0.00 | 0.00 | 99 | 1015.6 |
| 20260902101639 | 79 | 293 | 0.0 | 0.0 | 0.00 | 0.00 | 0.00 | 99 | 1015.6 |
| 20260902101138 | 79 | 293 | 0.0 | 0.0 | 0.00 | 0.00 | 0.00 | 99 | 1015.7 |
| 20260902100633 | 79 | 293 | 0.0 | 0.0 | 0.00 | 0.00 | 0.00 | 99 | 1015.8 |
| 20260902100128 | 79 | 295 | 0.0 | 0.0 | 0.00 | 0.00 | 0.00 | 99 | 1015.6 |
| 20260902095627 | 79 | 295 | 0.0 | 0.0 | 0.00 | 0.00 | 0.00 | 99 | 1015.4 |
| 20260902095126 | 79 | 295 | 0.0 | 0.0 | 0.00 | 0.00 | 0.00 | 99 | 1015.6 |
| 20260902094622 | 79 | 298 | 0.0 | 0.0 | 0.00 | 0.00 | 0.00 | 99 | 1015.5 |
| 20260902094118 | 79 | 300 | 0.0 | 0.0 | 0.00 | 0.00 | 0.00 | 99 | 1015.5 |
| 20260902093617 | 79 | 300 | 0.0 | 0.0 | 0.00 | 0.00 | 0.00 | 99 | 1015.5 |
| 20260902093113 | 79 | 300 | 0.0 | 0.0 | 0.00 | 0.00 | 0.00 | 99 | 1015.6 |
| 20260902092612 | 79 | 300 | 0.0 | 0.0 | 0.00 | 0.00 | 0.00 | 99 | 1015.6 |
| 20260902092108 | 79 | 300 | 0.0 | 0.0 | 0.00 | 0.00 | 0.00 | 99 | 1015.7 |
| 20260902091603 | 79 | 299 | 0.0 | 0.0 | 0.00 | 0.00 | 0.00 | 99 | 1015.7 |
| 20260902091059 | 79 | 299 | 0.0 | 0.0 | 0.00 | 0.00 | 0.00 | 99 | 1015.7 |
| 20260902090555 | 79 | 335 | 0.0 | 0.0 | 0.00 | 0.00 | 0.00 | 99 | 1015.5 |
| 20260902090053 | 79 | 326 | 0.0 | 0.0 | 0.00 | 0.00 | 0.00 | 99 | 1015.7 |
| 20260902085548 | 78 | 326 | 0.0 | 0.0 | 0.00 | 0.00 | 0.00 | 99 | 1015.4 |
| 20260902085043 | 78 | 317 | 0.0 | 0.0 | 0.00 | 0.00 | 0.00 | 99 | 1015.5 |
| 20260902084539 | 79 | 317 | 0.0 | 0.0 | 0.00 | 0.00 | 0.00 | 99 | 1015.5 |
| 20260902084035 | 78 | 316 | 0.0 | 0.0 | 0.00 | 0.00 | 0.00 | 99 | 1015.1 |
| 20260902083525 | 79 | 322 | 0.0 | 0.0 | 0.00 | 0.00 | 0.00 | 99 | 1015.3 |
| 20260902083025 | 79 | 323 | 0.0 | 0.0 | 0.00 | 0.00 | 0.00 | 99 | 1015.1 |
| 20260902082520 | 79 | 323 | 0.0 | 0.0 | 0.00 | 0.00 | 0.00 | 99 | 1015.2 |
| 20260902082017 | 79 | 323 | 0.0 | 0.0 | 0.00 | 0.00 | 0.00 | 99 | 1015.4 |
| 20260902081513 | 79 | 323 | 0.0 | 0.0 | 0.00 | 0.00 | 0.00 | 99 | 1015.3 |
| 20260902081012 | 79 | 322 | 0.0 | 0.0 | 0.00 | 0.00 | 0.00 | 99 | 1015.3 |
| 20260902080508 | 79 | 322 | 0.0 | 0.0 | 0.00 | 0.00 | 0.00 | 99 | 1015.3 |
| 20260902080004 | 79 | 322 | 0.0 | 0.0 | 0.00 | 0.00 | 0.00 | 99 | 1015.5 |
| 20260902075459 | 79 | 323 | 0.0 | 0.0 | 0.00 | 0.00 | 0.00 | 99 | 1015.2 |
| 20260902074955 | 79 | 322 | 0.0 | 0.0 | 0.00 | 0.00 | 0.00 | 99 | 1015.3 |
| 20260902074450 | 79 | 322 | 0.0 | 0.0 | 0.00 | 0.00 | 0.00 | 99 | 1015.6 |
| 20260902073950 | 78 | 322 | 0.0 | 0.0 | 0.00 | 0.00 | 0.00 | 99 | 1015.6 |
| 20260902073446 | 78 | 322 | 0.0 | 0.0 | 0.00 | 0.00 | 0.00 | 99 | 1015.7 |
| 20260902072942 | 78 | 323 | 0.0 | 0.0 | 0.00 | 0.00 | 0.00 | 99 | 1015.6 |
| 20260902072438 | 78 | 323 | 0.0 | 0.0 | 0.00 | 0.00 | 0.00 | 99 | 1015.4 |
| 20260902071934 | 78 | 317 | 0.0 | 0.0 | 0.00 | 0.00 | 0.00 | 99 | 1015.6 |
| 20260902071433 | 79 | 316 | 0.0 | 0.0 | 0.00 | 0.00 | 0.00 | 99 | 1015.6 |
| 20260902070930 | 79 | 317 | 0.0 | 0.0 | 0.00 | 0.00 | 0.00 | 99 | 1015.6 |
| 20260902070425 | 79 | 316 | 0.0 | 0.0 | 0.00 | 0.00 | 0.00 | 99 | 1015.6 |
| 20260902065924 | 78 | 316 | 0.0 | 0.0 | 0.00 | 0.00 | 0.00 | 99 | 1015.5 |
| 20260902065419 | 78 | 317 | 0.0 | 0.0 | 0.00 | 0.00 | 0.00 | 99 | 1015.2 |
| 20260902064914 | 78 | 318 | 0.0 | 0.0 | 0.00 | 0.00 | 0.00 | 99 | 1015.4 |
| 20260902064410 | 78 | 307 | 0.0 | 0.0 | 0.00 | 0.00 | 0.00 | 99 | 1015.7 |
| 20260902063906 | 79 | 306 | 0.0 | 0.0 | 0.00 | 0.00 | 0.00 | 99 | 1015.6 |
| 20260902063405 | 78 | 322 | 0.0 | 0.0 | 0.00 | 0.00 | 0.00 | 99 | 1015.9 |
| 20260902062901 | 78 | 330 | 0.0 | 0.0 | 0.00 | 0.00 | 0.00 | 99 | 1015.7 |
| 20260902062359 | 78 | 288 | 0.0 | 0.0 | 0.00 | 0.00 | 0.00 | 99 | 1015.8 |
| 20260902061859 | 78 | 288 | 0.0 | 0.0 | 0.00 | 0.00 | 0.00 | 99 | 1015.8 |
| 20260902061354 | 78 | 288 | 0.0 | 0.0 | 0.00 | 0.00 | 0.00 | 99 | 1015.8 |
| 20260902060851 | 79 | 288 | 0.0 | 0.0 | 0.00 | 0.00 | 0.00 | 99 | 1015.7 |
| 20260902060346 | 78 | 288 | 0.0 | 0.0 | 0.00 | 0.00 | 0.00 | 99 | 1015.7 |
| 20260902055842 | 78 | 287 | 0.0 | 0.0 | 0.00 | 0.00 | 0.00 | 99 | 1015.9 |
| 20260902055338 | 79 | 289 | 0.0 | 0.0 | 0.00 | 0.00 | 0.00 | 99 | 1015.8 |
| 20260902054833 | 79 | 289 | 0.0 | 0.0 | 0.00 | 0.00 | 0.00 | 99 | 1016.0 |
| 20260902054329 | 79 | 289 | 0.0 | 0.0 | 0.00 | 0.00 | 0.00 | 99 | 1016.0 |
| 20260902053824 | 79 | 289 | 0.0 | 0.0 | 0.00 | 0.00 | 0.00 | 99 | 1015.8 |
| 20260902053319 | 79 | 289 | 0.0 | 0.0 | 0.00 | 0.00 | 0.00 | 99 | 1015.6 |
| 20260902052818 | 79 | 289 | 0.0 | 0.0 | 0.00 | 0.00 | 0.00 | 99 | 1015.9 |
| 20260902052313 | 79 | 287 | 0.0 | 0.0 | 0.00 | 0.00 | 0.00 | 99 | 1015.8 |
| 20260902051808 | 79 | 287 | 0.0 | 0.0 | 0.00 | 0.00 | 0.00 | 99 | 1016.1 |
| 20260902051308 | 79 | 287 | 0.0 | 0.0 | 0.00 | 0.00 | 0.00 | 99 | 1016.0 |
| 20260902050803 | 79 | 287 | 0.0 | 0.0 | 0.00 | 0.00 | 0.00 | 99 | 1016.3 |
| 20260902050257 | 79 | 287 | 0.0 | 0.0 | 0.00 | 0.00 | 0.00 | 99 | 1016.2 |
| 20260902045757 | 79 | 287 | 0.0 | 0.0 | 0.00 | 0.00 | 0.00 | 99 | 1016.1 |
| 20260902045253 | 79 | 287 | 0.0 | 0.0 | 0.00 | 0.00 | 0.00 | 99 | 1016.1 |
| 20260902044749 | 79 | 287 | 0.0 | 0.0 | 0.00 | 0.00 | 0.00 | 99 | 1016.0 |
| 20260902044244 | 79 | 286 | 0.0 | 0.0 | 0.00 | 0.00 | 0.00 | 99 | 1016.1 |
| 20260902043739 | 79 | 286 | 0.0 | 0.0 | 0.00 | 0.00 | 0.00 | 99 | 1016.3 |
| 20260902043235 | 79 | 286 | 0.0 | 0.0 | 0.00 | 0.00 | 0.00 | 99 | 1016.2 |
| 20260902042733 | 79 | 288 | 0.0 | 0.0 | 0.00 | 0.00 | 0.00 | 99 | 1016.1 |
| 20260902042228 | 79 | 288 | 0.0 | 0.0 | 0.00 | 0.00 | 0.00 | 99 | 1016.2 |
| 20260902041724 | 79 | 288 | 0.0 | 0.0 | 0.00 | 0.00 | 0.00 | 99 | 1016.2 |
| 20260902041218 | 79 | 288 | 0.0 | 0.0 | 0.00 | 0.00 | 0.00 | 99 | 1016.1 |
| 20260902040718 | 79 | 288 | 0.0 | 0.0 | 0.00 | 0.00 | 0.00 | 99 | 1016.3 |
| 20260902040213 | 79 | 288 | 0.0 | 0.0 | 0.00 | 0.00 | 0.00 | 99 | 1016.3 |
| 20260902035712 | 80 | 287 | 0.0 | 0.0 | 0.00 | 0.21 | 0.21 | 99 | 1016.3 |
| 20260902035208 | 80 | 287 | 0.0 | 0.0 | 0.00 | 0.21 | 0.21 | 99 | 1016.5 |
| 20260902034707 | 80 | 286 | 0.0 | 0.0 | 0.00 | 0.21 | 0.21 | 99 | 1016.4 |
| 20260902034206 | 80 | 286 | 0.0 | 0.0 | 0.00 | 0.21 | 0.21 | 99 | 1016.6 |
| 20260902033705 | 80 | 286 | 0.0 | 0.0 | 0.00 | 0.21 | 0.21 | 99 | 1016.6 |
| 20260902033200 | 80 | 287 | 0.0 | 0.0 | 0.00 | 0.21 | 0.21 | 99 | 1016.7 |
| 20260902032659 | 80 | 322 | 0.0 | 0.0 | 0.00 | 0.21 | 0.21 | 99 | 1016.8 |
| 20260902032154 | 80 | 324 | 0.0 | 0.0 | 0.00 | 0.21 | 0.21 | 99 | 1016.6 |
| 20260902031648 | 80 | 124 | 0.0 | 0.0 | 0.00 | 0.21 | 0.21 | 99 | 1016.7 |
| 20260902031144 | 80 | 127 | 0.0 | 0.0 | 0.00 | 0.21 | 0.21 | 99 | 1016.7 |
| 20260902030640 | 80 | 123 | 0.0 | 0.0 | 0.00 | 0.21 | 0.21 | 99 | 1016.9 |
| 20260902030138 | 80 | 123 | 0.0 | 0.0 | 0.00 | 0.21 | 0.21 | 99 | 1016.6 |
| 20260902025638 | 80 | 123 | 0.0 | 0.0 | 0.00 | 0.21 | 0.21 | 99 | 1016.9 |
| 20260902025134 | 80 | 123 | 0.0 | 0.0 | 0.00 | 0.21 | 0.21 | 99 | 1017.0 |
| 20260902024629 | 80 | 122 | 0.0 | 0.0 | 0.00 | 0.21 | 0.21 | 99 | 1017.0 |
| 20260902024124 | 80 | 122 | 0.0 | 0.0 | 0.00 | 0.21 | 0.21 | 99 | 1016.9 |
| 20260902023620 | 81 | 107 | 0.0 | 0.0 | 0.00 | 0.21 | 0.21 | 99 | 1016.9 |
| 20260902023114 | 81 | 107 | 0.0 | 0.0 | 0.00 | 0.21 | 0.21 | 99 | 1017.0 |
| 20260902022614 | 81 | 107 | 0.0 | 0.0 | 0.00 | 0.21 | 0.21 | 99 | 1017.0 |
| 20260902022110 | 81 | 107 | 0.0 | 0.0 | 0.00 | 0.21 | 0.21 | 99 | 1016.9 |
| 20260902021605 | 81 | 107 | 0.0 | 0.0 | 0.00 | 0.21 | 0.21 | 99 | 1017.0 |
| 20260902021100 | 81 | 107 | 0.0 | 0.0 | 0.00 | 0.21 | 0.21 | 99 | 1016.8 |
| 20260902020556 | 81 | 108 | 0.0 | 0.0 | 0.00 | 0.21 | 0.21 | 99 | 1016.9 |
| 20260902020051 | 81 | 110 | 0.0 | 0.0 | 0.00 | 0.21 | 0.21 | 99 | 1016.7 |
| 20260902015547 | 81 | 109 | 0.0 | 0.0 | 0.00 | 0.21 | 0.21 | 98 | 1016.6 |
| 20260902015043 | 82 | 110 | 0.0 | 0.0 | 0.00 | 0.21 | 0.21 | 98 | 1016.6 |
| 20260902014539 | 82 | 108 | 0.0 | 0.0 | 0.00 | 0.21 | 0.21 | 97 | 1016.7 |
| 20260902014034 | 82 | 107 | 0.0 | 0.0 | 0.00 | 0.21 | 0.21 | 97 | 1016.8 |
| 20260902013533 | 82 | 107 | 0.0 | 0.0 | 0.00 | 0.21 | 0.21 | 96 | 1016.5 |
| 20260902013029 | 82 | 107 | 0.0 | 0.0 | 0.00 | 0.21 | 0.21 | 96 | 1016.5 |
| 20260902012524 | 82 | 107 | 0.0 | 0.0 | 0.00 | 0.21 | 0.21 | 96 | 1016.4 |
| 20260902012020 | 82 | 109 | 0.0 | 0.0 | 0.00 | 0.21 | 0.21 | 96 | 1016.6 |
| 20260902011515 | 83 | 123 | 0.0 | 0.0 | 0.00 | 0.21 | 0.21 | 96 | 1016.4 |
| 20260902011015 | 83 | 115 | 1.0 | 2.0 | 0.00 | 0.21 | 0.21 | 95 | 1016.5 |
| 20260902010514 | 83 | 305 | 0.0 | 0.0 | 0.00 | 0.21 | 0.21 | 95 | 1016.3 |
| 20260902010010 | 83 | 313 | 0.0 | 0.0 | 0.00 | 0.21 | 0.21 | 95 | 1016.5 |
| 20260902005508 | 83 | 330 | 0.0 | 0.0 | 0.00 | 0.21 | 0.21 | 95 | 1016.3 |
| 20260902005004 | 83 | 25 | 0.0 | 0.0 | 0.00 | 0.21 | 0.21 | 95 | 1016.3 |
| 20260902004503 | 84 | 333 | 0.0 | 0.0 | 0.00 | 0.21 | 0.21 | 96 | 1016.4 |
| 20260902003959 | 83 | 359 | 4.0 | 6.0 | 0.00 | 0.21 | 0.21 | 96 | 1016.3 |
| 20260902003454 | 83 | 333 | 0.0 | 0.0 | 0.00 | 0.21 | 0.21 | 97 | 1016.3 |
| 20260902002949 | 83 | 315 | 0.0 | 1.0 | 0.00 | 0.21 | 0.21 | 97 | 1016.5 |
| 20260902002445 | 83 | 312 | 0.0 | 0.0 | 0.00 | 0.21 | 0.21 | 97 | 1016.3 |
| 20260902001944 | 83 | 309 | 0.0 | 0.0 | 0.00 | 0.21 | 0.21 | 97 | 1016.4 |
| 20260902001439 | 83 | 313 | 0.0 | 0.0 | 0.00 | 0.21 | 0.21 | 96 | 1016.4 |
| 20260902000934 | 83 | 314 | 0.0 | 0.0 | 0.00 | 0.21 | 0.21 | 96 | 1016.4 |
| 20260902000429 | 84 | 314 | 0.0 | 0.0 | 0.00 | 0.21 | 0.21 | 96 | 1016.4 |
| 20260901235924 | 84 | 314 | 0.0 | 0.0 | 0.00 | 0.21 | 0.21 | 95 | 1016.5 |
| 20260901235419 | 84 | 314 | 0.0 | 0.0 | 0.00 | 0.21 | 0.21 | 94 | 1016.5 |
| 20260901234914 | 84 | 315 | 0.0 | 0.0 | 0.00 | 0.21 | 0.21 | 94 | 1016.4 |
| 20260901234408 | 84 | 311 | 0.0 | 0.0 | 0.00 | 0.21 | 0.21 | 94 | 1016.4 |
| 20260901233903 | 84 | 314 | 0.0 | 0.0 | 0.00 | 0.21 | 0.21 | 94 | 1016.3 |
| 20260901233358 | 85 | 293 | 0.0 | 0.0 | 0.00 | 0.21 | 0.21 | 93 | 1016.2 |
| 20260901232855 | 85 | 328 | 0.0 | 0.0 | 0.00 | 0.21 | 0.21 | 93 | 1016.3 |
| 20260901232354 | 85 | 324 | 0.0 | 0.0 | 0.00 | 0.21 | 0.21 | 93 | 1016.2 |
| 20260901231850 | 85 | 314 | 0.0 | 0.0 | 0.00 | 0.21 | 0.21 | 92 | 1016.1 |
| 20260901231347 | 86 | 320 | 0.0 | 0.0 | 0.00 | 0.21 | 0.21 | 92 | 1016.3 |
| 20260901230843 | 86 | 315 | 0.0 | 0.0 | 0.00 | 0.21 | 0.21 | 91 | 1016.1 |
| 20260901230342 | 86 | 329 | 0.0 | 0.0 | 0.00 | 0.21 | 0.21 | 91 | 1016.2 |
| 20260901225838 | 86 | 294 | 0.0 | 0.0 | 0.00 | 0.21 | 0.21 | 91 | 1016.0 |
| 20260901225337 | 86 | 355 | 0.0 | 0.0 | 0.00 | 0.21 | 0.21 | 91 | 1016.0 |
| 20260901224832 | 86 | 324 | 0.0 | 1.0 | 0.00 | 0.21 | 0.21 | 90 | 1015.9 |
| 20260901224329 | 86 | 349 | 0.0 | 1.0 | 0.00 | 0.21 | 0.21 | 90 | 1016.2 |
| 20260901223825 | 86 | 338 | 0.0 | 0.0 | 0.00 | 0.21 | 0.21 | 90 | 1016.2 |
| 20260901223320 | 86 | 314 | 0.0 | 1.0 | 0.00 | 0.21 | 0.21 | 89 | 1015.9 |
| 20260901222815 | 86 | 334 | 0.0 | 0.0 | 0.00 | 0.21 | 0.21 | 89 | 1016.0 |
| 20260901222312 | 87 | 338 | 0.0 | 0.0 | 0.00 | 0.21 | 0.21 | 89 | 1016.2 |
| 20260901221808 | 87 | 31 | 0.0 | 0.0 | 0.00 | 0.21 | 0.21 | 89 | 1016.2 |
| 20260901221303 | 87 | 34 | 0.0 | 0.0 | 0.00 | 0.21 | 0.21 | 89 | 1016.0 |
| 20260901220802 | 87 | 326 | 0.0 | 0.0 | 0.00 | 0.21 | 0.21 | 88 | 1015.9 |
| 20260901220302 | 87 | 94 | 2.0 | 2.0 | 0.00 | 0.21 | 0.21 | 88 | 1015.9 |
| 20260901215801 | 87 | 105 | 2.0 | 2.0 | 0.00 | 0.21 | 0.21 | 87 | 1015.8 |
| 20260901215300 | 87 | 108 | 3.0 | 6.0 | 0.00 | 0.21 | 0.21 | 86 | 1015.6 |
| 20260901214758 | 87 | 23 | 2.0 | 3.0 | 0.00 | 0.21 | 0.21 | 86 | 1015.5 |
| 20260901214258 | 87 | 324 | 0.0 | 1.0 | 0.00 | 0.21 | 0.21 | 85 | 1015.5 |
| 20260901213753 | 87 | 26 | 3.0 | 7.0 | 0.00 | 0.21 | 0.21 | 84 | 1015.5 |
| 20260901213252 | 88 | 1 | 5.0 | 7.0 | 0.00 | 0.21 | 0.21 | 84 | 1015.7 |
| 20260901212752 | 88 | 100 | 2.0 | 3.0 | 0.00 | 0.21 | 0.21 | 84 | 1015.4 |
| 20260901212248 | 88 | 125 | 0.0 | 0.0 | 0.00 | 0.21 | 0.21 | 84 | 1015.4 |
| 20260901211743 | 88 | 10 | 4.0 | 5.0 | 0.00 | 0.21 | 0.21 | 84 | 1015.5 |
| 20260901211239 | 88 | 342 | 1.0 | 2.0 | 0.00 | 0.21 | 0.21 | 83 | 1015.4 |